Regional Weather Roundup
Issued by NWS

Home | Current Version | Previous Version | Graphics & Text | Print | Product List | Glossary On
Versions: 1 2 3 4 5 6 7 8 9 10 11 12 13 14 15 16 17 18 19 20 21 22 23 24 25 26 27 28 29 30 31 32 33 34 35 36 37 38 39 40 41 42 43 44 45 46 47 48 49 50
554
ASUS43 KDTX 200310
RWRMI
MICHIGAN HOURLY REGIONAL WEATHER ROUNDUP
NATIONAL WEATHER SERVICE DETROIT/PONTIAC MI
1100 PM EDT SAT MAY 19 2018

NOTE: "FAIR" INDICATES FEW OR NO CLOUDS BELOW 12,000 FEET WITH NO
SIGNIFICANT WEATHER AND/OR OBSTRUCTION TO VISIBILITY.

MIZ047>049-052>055-059>063-066>070-074>076-081>083-200400-
SOUTHEAST LOWER MICHIGAN

CITY           SKY/WX    TMP DP  RH WIND       PRES   REMARKS
ADRIAN         MOCLDY    63  60  90 NW7       29.93R
ALMA           CLOUDY    60  59  98 NW7       29.94R
ANN ARBOR      CLOUDY    65  61  87 W6        29.92R
BAD AXE        CLOUDY    59  58  97 NW3       29.91R
CARO           LGT RAIN  60  58  92 NW7       29.90R
DETROIT CITY   CLOUDY    68  63  84 W7        29.89R
DETROIT        MOCLDY    67  61  81 NW6       29.90R
FLINT          CLOUDY    61  60  97 NW9       29.91R FOG
GROSSE ILE     FAIR      65  63  92 W5        29.89R
HILLSDALE      CLOUDY    61  55  82 W10       29.94R
HOWELL         CLOUDY    63  59  86 NW6       29.92R

CITY           SKY/WX    TMP DP  RH WIND       PRES   REMARKS
JACKSON        CLOUDY    62  57  83 W8        29.93R
LAMBERTVILLE   FAIR      67  60  79 W8        29.92R
LANSING        CLOUDY    61  58  90 W8        29.94R
LAPEER         CLOUDY    62  61  97 NW6       29.91R FOG
MASON          CLOUDY    61  56  83 W8        29.94R
MONROE         FAIR      64  62  93 W9        29.90R
MT. CLEMENS    CLOUDY    67  67 100 NW7       29.88R
PONTIAC        CLOUDY    65  62  90 W13       29.89R
PORT HOPE        N/A     48  48 100 NW7       29.89R
PORT HURON     CLOUDY    63  59  88 NW6       29.90R
TRI CITIES     CLOUDY    61  59  93 NW9       29.92R
MIDLAND        CLOUDY    59  58  98 NW6       29.92R
TROY           CLOUDY    68  64  86 NW5       29.91R
SAGINAW HB     CLOUDY    61  59  94 NW9       29.90R
$$
MIZ043>046-050>051-056>058-064>065-071>073-077>080-200400-
SOUTHWEST LOWER MICHIGAN

CITY           SKY/WX    TMP DP  RH WIND       PRES   REMARKS
BATTLE CREEK   CLOUDY    57  54  89 NW8       29.96S
BENTON HARBOR  CLOUDY    57  53  86 CALM      29.98R
BIG RAPIDS     CLOUDY    55  52  91 NW6       29.96R
COLDWATER      FAIR      59  55  85 W7        29.96R
FREMONT        CLOUDY    55  53  94 NW8       29.98R
HOLLAND        CLOUDY    52  49  89 W6        29.98R
GRAND RAPIDS   CLOUDY    56  53  90 W9        29.96R
IONIA          CLOUDY    58  55  89 W9        29.94R
KALAMAZOO      CLOUDY    58  52  80 NW7       29.97R
LUDINGTON      CLOUDY    48  47  95 N6        30.00R
MARSHALL       MOCLDY    57  56  95 W8        29.95R
MOUNT PLEASANT CLOUDY    60  58  93 NW3       29.93R
MUSKEGON       CLOUDY    52  48  86 W7        29.99R
SOUTH HAVEN    CLOUDY    57  53  86 CALM      29.99R
$$
MIZ016>042-200400-
NORTHERN LOWER MICHIGAN

CITY           SKY/WX    TMP DP  RH WIND       PRES   REMARKS
ALPENA         CLOUDY    50  50 100 NW6       29.93R
BEAVER ISLAND  CLOUDY    44  40  86 NW9G17    30.00R
BELLAIRE       CLOUDY    48  43  82 CALM      30.00R
CADILLAC       CLOUDY    49  48  99 N7        29.98R
CHARLEVOIX     MOCLDY    43  43  99 W9        30.02R
FRANKFORT      CLOUDY    47  41  81 N8G17     30.04R
GAYLORD        CLOUDY    49  49 100 VRB5      29.96R
GRAYLING       CLOUDY    52  51  96 NW7       29.95R
HARBOR SPRINGS MOCLDY    42  41  99 SW5       29.98R
HOUGHTON LAKE  CLOUDY    51  49  92 NW12      29.96R
MANISTEE       CLOUDY    48  44  86 NW8       30.02R
OSCODA         CLOUDY    56  54  94 NW7       29.91R
PELLSTON       FAIR      47  41  80 W12       29.97R
ROGERS CITY    CLOUDY    51  49  96 W7        29.94R
TRAVERSE CITY  CLOUDY    49  40  71 N10       30.01R
$$
MIZ007>008-015-200400-
EASTERN UPPER MICHIGAN

CITY           SKY/WX    TMP DP  RH WIND       PRES   REMARKS
KINROSS        MOCLDY    43  38  82 NW13      29.96R
MACKINAC ISLAN MOCLDY    47  47 100 NW8       29.96R
NEWBERRY       CLOUDY    42  40  91 NW10      30.00R
S. S. MARIE    CLOUDY    43  38  82 NW13      29.94R
MUNISING         N/A     39  38  96 NW17      30.08R WCI  30
$$
MIZ004>006-011>014-085-200400-
CENTRAL UPPER MICHIGAN

CITY           SKY/WX    TMP DP  RH WIND       PRES   REMARKS
MANISTIQUE     FAIR      40  38  95 N14G23    30.02R WCI  32
ESCANABA       CLOUDY    44  37  76 N16G26    30.07R
SAWYER-GWINN   CLOUDY    39  34  82 N22G31    30.10R WCI  29
$$
MIZ001>003-009>011-084-200400-
WESTERN UPPER MICHIGAN

CITY           SKY/WX    TMP DP  RH WIND       PRES   REMARKS
IRON MOUNTAIN  CLOUDY    44  38  79 N21G29    30.10R
HOUGHTON       CLOUDY    42  34  73 NE6       30.17R
COPPER HARBOR    N/A     40  36  86 N10       30.17R WCI  33
IRONWOOD       FAIR      41  35  79 E6        30.19R
$$

ABBREVIATIONS USED IN REMARKS
   TC - TEMPERATURE IN CELSIUS
  WCI - WIND CHILL INDEX
   HX - HEAT INDEX
  VSB - VISIBILITY





USA.gov is the U.S. government's official web portal to all federal, state and local government web resources and services.